📊 Raw Sensor Data
Showing records 48126 to 48150 of 85,096 total
| ID | Distance (ft) | Battery V | Battery A | Int Temp (°F) | Int Humid (%) | Ext Temp (°F) | Solar V | RSSI | SNR | Time Stamp |
|---|---|---|---|---|---|---|---|---|---|---|
| 36983 | -- | 3.89 | 0 | 87 | 44 | 77 | 5.10 | -75 | 9 | 04/05/2025 06:30 PM |
| 36982 | -- | 3.89 | 0 | 88 | 44 | 78 | 5.10 | -75 | 9 | 04/05/2025 06:15 PM |
| 36981 | -- | 3.89 | 0 | 88 | 45 | 78 | 5.10 | -75 | 9 | 04/05/2025 06:00 PM |
| 36980 | 15.4 | 3.89 | 0 | 92 | 42 | 82 | 5.10 | -75 | 8 | 04/05/2025 05:45 PM |
| 36979 | -- | 3.89 | 0 | 92 | 42 | 77 | 5.10 | -75 | 9 | 04/05/2025 05:30 PM |
| 36978 | 15.4 | 3.89 | 0 | 94 | 40 | 83 | 5.10 | -75 | 8 | 04/05/2025 05:15 PM |
| 36977 | 15.5 | 3.95 | 0 | 94 | 40 | 84 | 5.10 | -75 | 8 | 04/05/2025 05:00 PM |
| 36976 | -- | 4.05 | 0 | 93 | 39 | 81 | 5.10 | -75 | 8 | 04/05/2025 04:46 PM |
| 36975 | 15.5 | 3.89 | 0 | 94 | 38 | 84 | 5.10 | -75 | 7 | 04/05/2025 04:30 PM |
| 36974 | 15.4 | 3.89 | 0 | 94 | 38 | 78 | 5.10 | -75 | 8 | 04/05/2025 04:15 PM |
| 36973 | -- | 3.89 | 0 | 92 | 38 | 76 | 5.10 | -75 | 9 | 04/05/2025 04:00 PM |
| 36972 | -- | 3.95 | 0 | 91 | 38 | 79 | 5.10 | -75 | 9 | 04/05/2025 03:45 PM |
| 36971 | -- | 3.89 | 0 | 91 | 37 | 75 | 5.10 | -74 | 8 | 04/05/2025 03:30 PM |
| 36970 | -- | 3.89 | 0 | 88 | 38 | 75 | 5.10 | -75 | 8 | 04/05/2025 03:15 PM |
| 36969 | -- | 3.89 | 0 | 87 | 37 | 74 | 5.10 | -76 | 9 | 04/05/2025 03:00 PM |
| 36968 | -- | 3.89 | 0 | 86 | 38 | 74 | 5.10 | -77 | 8 | 04/05/2025 02:45 PM |
| 36967 | -- | 3.89 | 0 | 86 | 37 | 72 | 5.10 | -76 | 9 | 04/05/2025 02:30 PM |
| 36966 | -- | 3.89 | 0 | 83 | 38 | 73 | 5.10 | -76 | 8 | 04/05/2025 02:15 PM |
| 36965 | -- | 4.10 | 0 | 83 | 38 | 70 | 5.10 | -75 | 9 | 04/05/2025 02:00 PM |
| 36964 | -- | 4.06 | 0 | 83 | 37 | 73 | 5.10 | -75 | 9 | 04/05/2025 01:45 PM |
| 36963 | 15.4 | 3.89 | 0 | 82 | 37 | 69 | 5.10 | -75 | 8 | 04/05/2025 01:30 PM |
| 36962 | -- | 3.91 | 0 | 80 | 38 | 70 | 5.10 | -75 | 9 | 04/05/2025 01:15 PM |
| 36961 | -- | 3.88 | 0 | 80 | 38 | 69 | 5.10 | -75 | 8 | 04/05/2025 01:00 PM |
| 36960 | -- | 3.88 | 0 | 79 | 37 | 69 | 5.10 | -74 | 8 | 04/05/2025 12:45 PM |
| 36959 | -- | 3.88 | 0 | 78 | 37 | 71 | 5.10 | -76 | 8 | 04/05/2025 12:30 PM |